This is the latest recevied weather packets stored in our database for station/object HB9DDE-10. If no packets are shown the sender has not sent any weather packets the latest 10 day(s).
| Time | Temp. | Humidity | Pressure | Rain* | Wind** | Luminosity | Snow |
|---|---|---|---|---|---|---|---|
| 1777631622 | 18.33° C | 39% | 1025.6 hPa | 0 mm | - | - | - |
| 1777631029 | 17.78° C | 40% | 1025.7 hPa | 0 mm | - | - | - |
| 1777630720 | 17.22° C | 41% | 1025.8 hPa | 0 mm | - | - | - |
| 1777630413 | 17.22° C | 43% | 1025.8 hPa | 0 mm | - | - | - |
| 1777630124 | 16.67° C | 41% | 1025.8 hPa | 0 mm | - | - | - |
| 1777629814 | 16.11° C | 42% | 1025.8 hPa | 0 mm | - | - | - |
| 1777629523 | 16.11° C | 41% | 1025.8 hPa | 0 mm | - | - | - |
| 1777629213 | 16.11° C | 41% | 1025.9 hPa | 0 mm | - | - | - |
| 1777628925 | 15.56° C | 41% | 1025.9 hPa | 0 mm | - | - | - |
| 1777628614 | 15.56° C | 41% | 1025.9 hPa | 0 mm | - | - | - |
| 1777628322 | 15.56° C | 42% | 1026 hPa | 0 mm | - | - | - |
| 1777628031 | 15° C | 41% | 1026 hPa | 0 mm | - | - | - |
| 1777627724 | 15° C | 42% | 1026 hPa | 0 mm | - | - | - |
| 1777627414 | 15° C | 42% | 1026 hPa | 0 mm | - | - | - |
| 1777627122 | 14.44° C | 43% | 1026 hPa | 0 mm | - | - | - |
| 1777626831 | 14.44° C | 44% | 1026 hPa | 0 mm | - | - | - |
| 1777626520 | 13.89° C | 44% | 1026 hPa | 0 mm | - | - | - |
| 1777626231 | 13.33° C | 43% | 1026 hPa | 0 mm | - | - | - |
| 1777625919 | 13.33° C | 44% | 1025.9 hPa | 0 mm | - | - | - |
| 1777625628 | 12.78° C | 45% | 1026 hPa | 0 mm | - | - | - |
| 1777625320 | 12.78° C | 42% | 1026 hPa | 0 mm | - | - | - |
| 1777625014 | 12.78° C | 44% | 1026 hPa | 0 mm | - | - | - |
| 1777624726 | 12.22° C | 45% | 1026 hPa | 0 mm | - | - | - |
| 1777624415 | 12.22° C | 44% | 1026 hPa | 0 mm | - | - | - |
| 1777624128 | 11.67° C | 46% | 1026.1 hPa | 0 mm | - | - | - |
* Rain latest hour (hover to see other rain measurements)
** Current wind speed in m/s (hover to see current wind gust speed)